Location: ????
(33.1659°N, 35.6604°E)
Time: 00:54:05
(UTC+00:00)

Cosmos 1939 Rocket - Pass Details

Date: 20 September 2019
Orbit: 534 x 583 km, 97.4° (Epoch: 18 October)

Event Time Altitude Azimuth Distance (km) Brightness Sun altitude
Rises 16:58:06 0° 179° (S) 2,679 6.2 -17.5°
Reaches altitude 10° 17:00:16 10° 184° (S) 1,787 5.3 -18.0°
Maximum altitude 17:04:00 50° 260° (W) 687 3.6 -18.7°
Drops below altitude 10° 17:07:46 10° 337° (NNW) 1,791 5.9 -19.5°
Sets 17:09:56 0° 343° (NNW) 2,686 6.8 -19.9°
